Location: Foulognes
(49.1413°N, 0.8183°W)
Time: 10:47:20
(UTC+00:00)

Cosmos 1459 Rocket - Visible Passes

Search period start: 29 January 2020 00:00
Search period end: 08 February 2020 00:00
Orbit: 936 x 1001 km, 83.0° (Epoch: 28 January)

Date Brightness Start Highest point End Pass type
(mag) Time Alt. Az. Time Alt. Az. Time Alt. Az.
29 Jan 5.7 06:37:39 10° N 06:43:05 33° ENE 06:48:30 10° SE visible
30 Jan 6.8 05:19:00 10° NE 05:19:50 10° NE 05:20:39 10° ENE visible
30 Jan 4.8 07:00:41 10° N 07:06:37 53° ENE 07:12:34 10° SSE visible
31 Jan 6.5 05:39:58 10° NNE 05:43:48 17° ENE 05:47:37 10° E visible
01 Feb 6.0 06:02:33 10° N 06:07:36 27° ENE 06:12:39 10° ESE visible
02 Feb 5.3 06:25:28 10° N 06:31:13 42° ENE 06:36:58 10° SE visible
02 Feb6.520:11:07NNE20:11:07NNE19:56:32Svisible
03 Feb 6.6 05:05:19 10° NNE 05:08:12 13° ENE 05:11:05 10° E visible
03 Feb 4.4 06:48:36 10° N 06:54:41 68° ENE 07:00:46 10° SSE visible
03 Feb6.318:48:51NNE18:48:51NNE18:37:00SEvisible
03 Feb 6.2 20:21:36 10° SSW 20:33:17 12° N 20:33:46 10° N visible
04 Feb 6.3 05:27:31 10° NNE 05:32:05 21° ENE 05:36:38 10° ESE visible
04 Feb 5.3 19:00:43 10° SSE 19:10:27 14° NNE 19:11:23 10° NNE visible
04 Feb 5.7 20:45:19 10° SW 20:54:48 22° N 20:56:57 10° N visible
05 Feb 5.6 05:50:18 10° N 05:55:47 34° ENE 06:01:16 10° SE visible
05 Feb 3.9 19:23:15 10° SSE 19:29:08 54° E 19:35:02 10° NNE visible
05 Feb 5.6 21:09:32 10° SW 21:14:44 29° WNW 21:19:55 10° N visible
06 Feb 6.9 04:31:22 10° NE 04:32:33 11° NE 04:33:43 10° ENE visible
06 Feb 4.8 06:13:21 10° N 06:19:19 54° ENE 06:25:19 10° SSE visible
06 Feb 5.3 18:04:37 10° ESE 18:08:03 16° ENE 18:11:29 10° NE visible
06 Feb 3.8 19:46:16 10° S 19:52:22 88° E 19:58:28 10° N visible
06 Feb 6.3 21:34:26 10° WSW 21:38:29 18° WNW 21:42:33 10° NNW visible
07 Feb 6.6 04:52:36 10° NNE 04:56:31 17° ENE 05:00:26 10° E visible
07 Feb 4.1 06:36:35 10° N 06:42:42 87° E 06:48:52 10° S visible
07 Feb 4.8 18:26:02 10° SE 18:30:55 26° E 18:35:48 10° NNE visible
07 Feb 4.4 20:09:46 10° SSW 20:15:44 57° WNW 20:21:43 10° N visible
07 Feb 6.7 22:00:41 10° WNW 22:02:26 11° NW 22:04:11 10° NW visible
